Printer-friendly version
Follow the MPC on Twitter Follow the MPC on Facebook The MPC blog
Minor Planet Center

MPEC 2010-K02 : 2010 JE88

The following Minor Planet Electronic Circular may be linked-to from your own Web pages, but must not otherwise be redistributed electronically.

A form allowing access to any MPEC is at the bottom of this page.


Read MPEC 2010-K01 Read MPEC 2010-K03


M.P.E.C. 2010-K02                                Issued 2010 May 16, 14:59 UT

     The Minor Planet Electronic Circulars contain information on unusual
         minor planets and routine data on comets.  They are published
   on behalf of Commission 20 of the International Astronomical Union by the
          Minor Planet Center, Smithsonian Astrophysical Observatory,
                          Cambridge, MA 02138, U.S.A.

             Prepared using the Tamkin Foundation Computer Network

                              MPC@CFA.HARVARD.EDU
       URL http://www.minorplanetcenter.org/iau/mpc.html  ISSN 1523-6714

                                   2010 JE88

Observations:
     K10J88E* C2010 05 14.24843 13 49 52.89 -03 23 24.7          18.5   EK002704
     K10J88E  C2010 05 14.25879 13 49 56.70 -03 23 26.8          18.3   EK002704
     K10J88E  C2010 05 14.26865 13 50 00.33 -03 23 29.1          18.3   EK002704
     K10J88E  C2010 05 14.27851 13 50 03.97 -03 23 30.3          18.7   EK002704
     K10J88E  C2010 05 14.28833 13 50 07.54 -03 23 32.6          18.4   EK002704
     K10J88E  C2010 05 15.19234 13 55 30.36 -03 26 23.8          17.9 V EK002G96
     K10J88E  C2010 05 15.19271 13 55 30.46 -03 26 24.1          18.2 V EK002G96
     K10J88E  C2010 05 15.19308 13 55 30.54 -03 26 23.9          18.1 V EK002G96
     K10J88E  C2010 05 15.19345 13 55 30.64 -03 26 24.1          18.2 V EK002G96
     K10J88E  C2010 05 15.21113 13 55 34.51 -03 26 36.8          19.0 R EK002H26
     K10J88E  C2010 05 15.21275 13 55 35.01 -03 26 37.2          18.9 R EK002H26
     K10J88E  C2010 05 15.21438 13 55 35.55 -03 26 37.4          18.9 R EK002H26
     K10J88E  C2010 05 15.21598 13 55 35.99 -03 26 37.9          19.3 R EK002H26
     K10J88E  C2010 05 15.21758 13 55 36.46 -03 26 38.1          18.9 R EK002H26
     K10J88E  C2010 05 15.21918 13 55 36.95 -03 26 38.5          19.0 R EK002H26
     K10J88E  C2010 05 15.23038 13 55 41.29 -03 26 32.7          17.8 R EK002H01
     K10J88E  C2010 05 15.24127 13 55 44.49 -03 26 34.4          17.8 R EK002H01
     K10J88E KC2010 05 15.24406 13 55 46.24 -03 26 36.7          18.5 C EK002G56
     K10J88E KC2010 05 15.24823 13 55 47.49 -03 26 39.3          18.5 C EK002G56
     K10J88E KC2010 05 15.25240 13 55 48.83 -03 26 39.7          18.2 C EK002G56
     K10J88E  C2010 05 15.25316 13 55 47.96 -03 26 36.6          17.6 R EK002H01
     K10J88E  C2010 05 15.26193 13 55 50.52 -03 26 38.2          17.7 R EK002H01
     K10J88E  C2010 05 15.63722 13 57 43.39 -03 27 44.9          18.0 R EK002372
     K10J88E  C2010 05 15.64031 13 57 44.20 -03 27 45.5          18.5 R EK002372
     K10J88E  C2010 05 15.64282 13 57 44.91 -03 27 46.1          17.9 R EK002372
     K10J88E  C2010 05 15.64594 13 57 45.67 -03 27 46.8          18.4 R EK002372
     K10J88E KC2010 05 15.87501 13 58 54.11 -03 28 33.9          18.1 C EK002I96
     K10J88E KC2010 05 15.89101 13 58 58.25 -03 28 36.6          17.8 C EK002I96
     K10J88E KC2010 05 15.90754 13 59 02.51 -03 28 40.0          18.0 C EK002I96
     K10J88E KC2010 05 15.92299 13 59 06.49 -03 28 39.8          18.4 C EK002J28
     K10J88E KC2010 05 15.94344 13 59 11.65 -03 28 43.8          18.3 C EK002J28
     K10J88E  C2010 05 16.21582 14 00 25.05 -03 29 27.3          18.5 V EK002G96
     K10J88E  C2010 05 16.21643 14 00 25.16 -03 29 27.3          18.4 V EK002G96
     K10J88E  C2010 05 16.21703 14 00 25.30 -03 29 27.4          18.4 V EK002G96
     K10J88E  C2010 05 16.21759 14 00 25.45 -03 29 27.6          18.4 V EK002G96
     K10J88E  C2010 05 16.25539 14 00 34.44 -03 29 33.4          18.2 R EK002651
     K10J88E  C2010 05 16.25648 14 00 34.69 -03 29 33.7          18.2 R EK002651
     K10J88E  C2010 05 16.25797 14 00 34.75 -03 29 35.1          18.8 C EK002H10
     K10J88E  C2010 05 16.25948 14 00 35.05 -03 29 35.1          18.2 C EK002H10
     K10J88E  C2010 05 16.25975 14 00 35.45 -03 29 34.4          18.3 R EK002651
     K10J88E  C2010 05 16.26121 14 00 35.50 -03 29 35.8          18.6 C EK002H10
     K10J88E  C2010 05 16.28854 14 00 42.27 -03 29 39.0          18.3 R EK002926
     K10J88E  C2010 05 16.29020 14 00 42.66 -03 29 39.1          18.5 R EK002926
     K10J88E  C2010 05 16.29184 14 00 43.04 -03 29 39.4          18.3 R EK002926
     K10J88E  C2010 05 16.30220 14 00 45.33 -03 29 43.5          18.0 R EK002H01
     K10J88E  C2010 05 16.31036 14 00 47.25 -03 29 44.8          18.2 R EK002H01
     K10J88E  C2010 05 16.32229 14 00 50.09 -03 29 46.7          18.0 R EK002H01
     K10J88E  C2010 05 16.33034 14 00 52.00 -03 29 48.0          18.0 R EK002H01
     K10J88E  C2010 05 16.52605 14 01 43.57 -03 30 23.6          18.7 V EK002900
     K10J88E  C2010 05 16.53318 14 01 45.16 -03 30 24.9          18.7 V EK002900
     K10J88E  C2010 05 16.54031 14 01 46.78 -03 30 26.7          18.2 V EK002900

Observer details:
372 Geisei.  Observers T. Seki, K. Muraoka, S. Shimomoto.  0.70-m f/7
    reflector + CCD.
651 Grasslands Observatory, Tucson.  Observer J. E. McGaha.  0.62-m f/5.1
    Newtonian reflector + CCD.
704 Lincoln Laboratory ETS, New Mexico.  Observers M. Blythe, G. Spitz,
    R. Brungard, J. Paige, P. Festler.  1.0-m f/2.15 reflector + CCD.
900 Moriyama.  Observer Y. Ikari.  0.26-m f/7.0 reflector + CCD.
926 Tenagra II Observatory.  Observers P. R. Holvorcem, M. Schwartz.  Measurer
    P. R. Holvorcem.  0.81-m f/7 Ritchey-Chretien + CCD.
G56 Walnut Creek.  Observer G. McKeegan.  0.28-m Schmidt-Cassegrain + CCD
    + f/6.2 focal reducer.
G96 Mt. Lemmon Survey.  Observer A. R. Gibbs.  Measurers J. D. Ahern,
    E. C. Beshore, A. Boattini, G. J. Garradd, A. R. Gibbs, A. D. Grauer,
    R. E. Hill, R. A. Kowalski, S. M. Larson, R. H. McNaught.  1.5-m reflector
    + CCD.
H01 Magdalena Ridge Observatory, Socorro.  Observers W. H. Ryan, E. V. Ryan.
    Measurer W. H. Ryan.  2.4-m f/8.9 reflector + CCD.
H10 Tzec Maun Observatory, Mayhill.  Observers D. Chestnov, A. Novichonok.
    0.36-m f/3.8 Maksutov-Newtonian + CCD.
H26 Doc Greiner Research Observatory, Janesvillle.  Observer M. Mills.  0.40-m
    f/8 Schmidt-Cassegrain + CCD.
I96 Hyperion Observatory, Urbanizacion Caraquiz.  Observer A. Perez.  0.25-m
    f/3.6 Newtonian reflector + CCD.
J28 Jaen.  Observer J. J. Martin.  0.20-m f/10 Schmidt-Cassegrain + CCD
    + f/6.3 focal reducer.

Orbital elements:
2010 JE88                                           PHA, Earth MOID = 0.0074 AU
Epoch 2010 July 23.0 TT = JDT 2455400.5                 MPC
M  40.42899              (2000.0)            P               Q
n   0.32601734     Peri.  258.10946     -0.55702882     -0.81936248
a   2.0907828      Node   226.60614     +0.81592997     -0.50950272
e   0.7609387      Incl.   10.74812     +0.15484563     -0.26277768
P   3.02           H   21.5           G   0.15           U   8
Residuals in seconds of arc
100514 704  0.2+  0.3+    100515 G56  0.4-  1.7+    100516 G96  0.1-  0.0
100514 704  0.0   0.2+    100515 G56  0.0   0.1-    100516 651  0.3+  0.1+
100514 704  0.0   0.2-    100515 G56  1.7+  0.2+    100516 651  0.2+  0.0
100514 704  0.2+  0.5+    100515 H01  0.2-  0.2-    100516 H10  0.3+  0.1-
100514 704  0.4-  0.1+    100515 H01  0.3-  0.2-    100516 H10  0.6-  0.2+
100515 G96  0.2+  0.1-    100515 372  0.4+  0.3+    100516 651  0.0   0.1-
100515 G96  0.0   0.3-    100515 372  0.1-  0.2+    100516 H10  0.0   0.2-
100515 G96  0.4-  0.1-    100515 372  0.4+  0.1+    100516 926  0.1+  0.0
100515 G96  0.5-  0.2-    100515 372  0.9-  0.1-    100516 926  0.1+  0.2+
100515 H26  0.4-  0.2-    100515 I96  0.0   0.0     100516 926  0.0   0.2+
100515 H26  0.1-  0.4-    100515 I96  0.0   0.2+    100516 H01  0.2+  0.0
100515 H26  0.7+  0.3-    100515 I96  0.2+  0.2-    100516 H01  0.0   0.0
100515 H26  0.2+  0.5-    100515 J28  0.0   0.4+    100516 H01  0.1+  0.1+
100515 H26  0.1+  0.4-    100515 J28  0.4-  0.0     100516 H01  0.1+  0.1+
100515 H26  0.3+  0.5-    100516 G96  0.2+  0.1-    100516 900  0.1+  0.1+
100515 H01  0.3-  0.4-    100516 G96  0.3-  0.0     100516 900  0.2-  0.1+
100515 H01  0.1-  0.1-    100516 G96  0.3-  0.1+    100516 900  0.1+  0.4-

Ephemeris:
2010 JE88                a,e,i = 2.09, 0.76, 11                  q = 0.4998
Date    TT    R. A. (2000) Decl.     Delta      r     Elong.  Phase     V
2010 05 14    13 48.20   -03 21.8    0.111    1.110   152.4    24.9    18.1
2010 05 19    14 10.00   -03 37.1    0.182    1.176   152.4    23.5    19.3
2010 05 24    14 20.30   -03 53.1    0.256    1.241   150.1    24.0    20.1
2010 05 29    14 26.88   -04 11.7    0.333    1.305   147.1    25.0    20.8
2010 06 03    14 31.94   -04 32.8    0.411    1.368   143.7    26.0    21.4
2010 06 08    14 36.34   -04 56.3    0.492    1.428   140.3    27.0    21.9
2010 06 13    14 40.50   -05 21.9    0.575    1.488   136.8    27.9    22.4
2010 06 18    14 44.64   -05 49.3    0.661    1.546   133.2    28.6    22.8
2010 06 23    14 48.85   -06 17.9    0.750    1.603   129.7    29.2    23.2
2010 06 28    14 53.19   -06 47.5    0.841    1.659   126.3    29.6    23.5

Carl W. Hergenrother         (C) Copyright 2010 MPC           M.P.E.C. 2010-K02

Read MPEC 2010-K01 Read MPEC 2010-K03


MPEC number:

Enter an MPEC number in one of the following forms:

  • 1997-B01 (the full form)
  • J97B01 (the packed version of the full form)
  • B01 (the abbreviated form)

Valid HTML 4.01!